TianYi 2 (43155 NORAD) Tracking and Keplerian Element Data

This shows tracking and keplerian element data for the satellite.

Feedback or suggestion? Click here.




ElementValue
Catalog43155
NameTianYi 2
Epoch Orbit2726
Epoch Day199.83313316
Epoch Year2018
RAAN273.7713
Inclination97.5232
Eccentricity0.0019046
Argument of Perigee40.0735
Mean Anonmoly97.2452
Mean Motion15.10611441
Decay Rate8.66E-06
L11 43155U 18008A 18199.83313316 .00000866 00000-0 56077-4 0 9990
L22 43155 97.5232 273.7713 0019046 40.0735 97.2452 15.10611441 27267

Live tracking and technical data element details for TianYi 2 (NORAD 43155). TianYi 2 can be tracked NOW for your location showing map with azimuth and elevation plus other details from your city location.

Track the satellite on the map from your city or location and see movement details for azimuth, elevation, latitude, longitude, range, height, and movement on the map or in text.







IsCatalogInMostPopularTable: catalog: 43155, numindb: 75
Update: records affected: 1



GetName: 43155 TianYi 2

Hit Count: updated at: Mon, 23 Jul 2018 07:33:46 GMT